GW2644 Weather Reports


Display with metric or nautical units.
time (UTC)temp
F
wind
direction
speed
MPH
gust
MPH
rain 1hr
in
rain 24hr
in
rain mn
in
humidity
%
barometer
mb
20260503035328 63 261 0.0 0.0 0.00 0.00 0.00 83 1016.1
20260503034826 63 255 1.0 2.0 0.00 0.00 0.00 83 1016.1
20260503034323 63 331 0.0 2.0 0.00 0.00 0.00 83 1015.9
20260503033820 63 275 0.0 2.0 0.00 0.00 0.00 82 1015.6
20260503033318 63 337 0.0 1.0 0.00 0.00 0.00 82 1015.7
20260503032815 64 264 1.0 3.0 0.00 0.00 0.00 82 1015.6
20260503032314 64 264 0.0 3.0 0.00 0.00 0.00 82 1015.5
20260503031811 64 337 0.0 2.0 0.00 0.00 0.00 81 1015.4
20260503031309 64 334 1.0 3.0 0.00 0.00 0.00 81 1015.6
20260503030805 64 240 1.0 3.0 0.00 0.00 0.00 80 1015.4
20260503030301 64 255 0.0 3.0 0.00 0.00 0.00 80 1015.5
20260503025758 65 252 2.0 3.0 0.00 0.00 0.00 79 1015.4
20260503025255 65 253 0.0 3.0 0.00 0.00 0.00 78 1014.8
20260503024752 65 262 1.0 3.0 0.00 0.00 0.00 78 1015.0
20260503024249 66 247 0.0 3.0 0.00 0.00 0.00 77 1014.8
20260503023746 66 270 2.0 3.0 0.00 0.00 0.00 76 1015.0
20260503023243 66 255 0.0 4.0 0.00 0.00 0.00 75 1014.7
20260503022739 67 250 2.0 4.0 0.00 0.00 0.00 75 1014.8
20260503022234 67 259 3.0 4.0 0.00 0.00 0.00 73 1014.6
20260503021731 68 253 2.0 4.0 0.00 0.00 0.00 72 1014.5
20260503021227 69 285 1.0 3.0 0.00 0.00 0.00 71 1014.6
20260503020725 69 265 0.0 4.0 0.00 0.00 0.00 70 1014.3
20260503020222 69 228 2.0 5.0 0.00 0.00 0.00 70 1014.2
20260503015719 69 280 3.0 4.0 0.00 0.00 0.00 69 1014.5
20260503015216 69 261 0.0 4.0 0.00 0.00 0.00 70 1014.5
20260503014711 69 275 0.0 3.0 0.00 0.00 0.00 70 1014.4
20260503014210 69 248 2.0 3.0 0.00 0.00 0.00 70 1014.6
20260503013706 69 254 0.0 4.0 0.00 0.00 0.00 70 1014.5
20260503013204 70 327 2.0 4.0 0.00 0.00 0.00 69 1014.5
20260503012702 69 281 3.0 4.0 0.00 0.00 0.00 69 1014.3
20260503012158 70 334 0.0 5.0 0.00 0.00 0.00 69 1014.3
20260503011654 70 254 3.0 5.0 0.00 0.00 0.00 68 1014.4
20260503011152 71 242 3.0 3.0 0.00 0.00 0.00 67 1014.2
20260503010648 71 239 0.0 4.0 0.00 0.00 0.00 66 1014.4
20260503010145 71 345 0.0 4.0 0.00 0.00 0.00 65 1014.4
20260503005642 71 237 0.0 3.0 0.00 0.00 0.00 65 1014.2
20260503005139 70 270 0.0 3.0 0.00 0.00 0.00 65 1014.5
20260503004636 71 248 3.0 4.0 0.00 0.00 0.00 63 1014.3
20260503004134 71 264 1.0 4.0 0.00 0.00 0.00 65 1014.3
20260503003631 72 246 6.0 6.0 0.00 0.00 0.00 64 1014.3
20260503003128 72 270 0.0 7.0 0.00 0.00 0.00 65 1014.4
20260503002625 72 247 5.0 5.0 0.00 0.00 0.00 63 1014.5
20260503002122 72 240 0.0 5.0 0.00 0.00 0.00 63 1014.5
20260503001618 72 270 0.0 5.0 0.00 0.00 0.00 64 1014.4
20260503001115 71 304 2.0 4.0 0.00 0.00 0.00 63 1014.7
20260503000612 73 10 0.0 3.0 0.00 0.00 0.00 62 1014.5
20260503000109 71 349 2.0 4.0 0.00 0.00 0.00 64 1014.5
20260502235606 71 228 2.0 5.0 0.00 0.00 0.00 64 1014.6
20260502235104 71 0 0.0 5.0 0.00 0.00 0.00 64 1014.4
20260502234559 71 284 3.0 4.0 0.00 0.00 0.00 64 1014.4
20260502234058 71 265 2.0 3.0 0.00 0.00 0.00 64 1014.4
20260502233558 72 0 2.0 4.0 0.00 0.00 0.00 63 1014.6
20260502233055 72 221 2.0 5.0 0.00 0.00 0.00 63 1014.8
20260502232551 70 288 0.0 8.0 0.00 0.00 0.00 66 1014.6
20260502232049 72 276 2.0 4.0 0.00 0.00 0.00 63 1014.5
20260502231545 71 270 1.0 5.0 0.00 0.00 0.00 64 1014.6
20260502231043 73 8 2.0 5.0 0.00 0.00 0.00 62 1014.8
20260502230541 72 257 1.0 3.0 0.00 0.00 0.00 64 1014.8
20260502230039 71 290 2.0 4.0 0.00 0.00 0.00 64 1014.8
20260502225534 72 229 5.0 6.0 0.00 0.00 0.00 64 1015.0
20260502225032 70 254 0.0 5.0 0.00 0.00 0.00 64 1014.8
20260502224528 71 281 2.0 4.0 0.00 0.00 0.00 64 1014.9
20260502224025 72 307 3.0 6.0 0.00 0.00 0.00 64 1015.4
20260502223523 71 15 2.0 3.0 0.00 0.00 0.00 64 1015.5
20260502223021 72 226 5.0 5.0 0.00 0.00 0.00 64 1015.7
20260502222518 72 233 2.0 4.0 0.00 0.00 0.00 65 1015.6
20260502222014 71 208 5.0 5.0 0.00 0.00 0.00 65 1015.3
20260502221510 71 209 2.0 4.0 0.00 0.00 0.00 65 1015.7
20260502221008 72 249 0.0 5.0 0.00 0.00 0.00 66 1015.6
20260502220503 69 251 0.0 4.0 0.00 0.00 0.00 67 1015.9
20260502220000 72 222 3.0 6.0 0.00 0.00 0.00 67 1016.0
20260502215457 70 212 2.0 6.0 0.00 0.00 0.00 68 1016.1
20260502214954 71 233 3.0 5.0 0.00 0.00 0.00 67 1016.2
20260502214451 71 243 0.0 7.0 0.00 0.00 0.00 69 1016.1
20260502213948 71 270 3.0 6.0 0.00 0.00 0.00 68 1016.5
20260502213445 70 213 3.0 5.0 0.00 0.00 0.00 68 1016.4
20260502212943 71 225 2.0 9.0 0.00 0.00 0.00 69 1016.5
20260502212442 71 246 3.0 5.0 0.00 0.00 0.00 68 1016.5
20260502211939 71 222 3.0 8.0 0.00 0.00 0.00 68 1016.5
20260502211434 70 225 2.0 2.0 0.00 0.00 0.00 68 1016.8
20260502210932 70 218 3.0 4.0 0.00 0.00 0.00 68 1016.8
20260502210428 71 270 2.0 8.0 0.00 0.00 0.00 69 1016.7
20260502205926 71 198 3.0 4.0 0.00 0.00 0.00 67 1016.7
20260502205422 71 232 0.0 5.0 0.00 0.00 0.00 68 1016.8
20260502204919 70 227 0.0 5.0 0.00 0.00 0.00 69 1016.7
20260502204416 71 229 2.0 5.0 0.00 0.00 0.00 67 1016.8
20260502203914 71 157 0.0 5.0 0.00 0.00 0.00 68 1016.9
20260502203411 70 257 3.0 3.0 0.00 0.00 0.00 68 1016.6
20260502202907 69 246 0.0 2.0 0.00 0.00 0.00 69 1016.9
20260502202404 68 212 0.0 3.0 0.00 0.00 0.00 71 1017.1
20260502201902 70 237 3.0 4.0 0.00 0.00 0.00 70 1016.9
20260502201358 68 257 0.0 3.0 0.00 0.00 0.00 72 1017.2
20260502200855 68 279 2.0 3.0 0.00 0.00 0.00 72 1017.3
20260502200350 70 244 3.0 6.0 0.00 0.00 0.00 70 1017.3
20260502195848 69 266 3.0 4.0 0.00 0.00 0.00 73 1017.3
20260502195344 67 165 0.0 2.0 0.00 0.00 0.00 73 1017.5
20260502194841 68 215 1.0 5.0 0.00 0.00 0.00 73 1017.8
20260502194338 68 225 2.0 6.0 0.00 0.00 0.00 74 1017.6
20260502193834 67 279 3.0 4.0 0.00 0.00 0.00 74 1017.4
20260502193331 65 109 0.0 4.0 0.00 0.00 0.00 75 1017.6
20260502192827 65 233 0.0 2.0 0.00 0.00 0.00 77 1017.7
20260502192324 65 206 0.0 5.0 0.00 0.00 0.00 77 1018.1
20260502191821 66 250 4.0 5.0 0.00 0.00 0.00 77 1017.9
20260502191319 66 252 3.0 4.0 0.00 0.00 0.00 78 1018.2
20260502190816 66 212 0.0 6.0 0.00 0.00 0.00 78 1018.3
20260502190314 66 215 1.0 4.0 0.00 0.00 0.00 78 1018.4
20260502185809 65 270 3.0 4.0 0.00 0.00 0.00 78 1018.3
20260502185305 65 214 0.0 3.0 0.00 0.00 0.00 77 1018.4
20260502184802 63 279 0.0 3.0 0.00 0.00 0.00 79 1018.2
20260502184257 65 217 0.0 3.0 0.00 0.00 0.00 78 1018.4
20260502183754 64 249 0.0 2.0 0.00 0.00 0.00 80 1018.4
20260502183250 63 0 0.0 0.0 0.00 0.00 0.00 81 1018.4
20260502182746 63 6 1.0 2.0 0.00 0.00 0.00 82 1018.2
20260502182241 64 248 2.0 4.0 0.00 0.00 0.00 82 1018.3
20260502181738 64 258 3.0 4.0 0.00 0.00 0.00 82 1018.1
20260502181237 63 246 0.0 1.0 0.00 0.00 0.00 82 1018.4
20260502180733 64 262 0.0 4.0 0.00 0.00 0.00 83 1018.6
20260502180231 63 278 1.0 4.0 0.00 0.00 0.00 84 1018.3
20260502170150 62 249 0.0 2.0 0.00 0.00 0.00 88 1019.2
20260502164136 62 227 3.0 3.0 0.00 0.00 0.00 89 1019.1
20260502163632 61 246 0.0 2.0 0.00 0.00 0.00 90 1019.3
20260502163129 61 243 1.0 2.0 0.00 0.00 0.00 90 1019.2
20260502162626 61 270 0.0 2.0 0.00 0.00 0.00 90 1019.1
20260502162123 61 255 1.0 1.0 0.00 0.00 0.00 89 1018.9
20260502161620 61 249 0.0 0.0 0.00 0.00 0.00 90 1019.1
20260502161117 61 249 0.0 0.0 0.00 0.00 0.00 90 1019.3
20260502160615 61 278 0.0 1.0 0.00 0.00 0.00 90 1019.3
20260502160114 61 285 0.0 1.0 0.00 0.00 0.00 90 1019.2
20260502152028 61 254 0.0 0.0 0.00 0.00 0.00 92 1019.0
20260502151525 60 254 0.0 0.0 0.00 0.00 0.00 92 1018.9
20260502151022 61 254 0.0 0.0 0.00 0.00 0.00 93 1018.7
20260502150520 61 254 0.0 0.0 0.00 0.00 0.00 93 1018.6
20260502130358 60 195 0.0 0.0 0.00 0.00 0.00 93 1018.2
20260502123341 60 228 0.0 2.0 0.00 0.00 0.00 93 1018.0
20260502122838 60 234 0.0 2.0 0.00 0.00 0.00 93 1018.1
20260502122334 60 330 2.0 2.0 0.00 0.00 0.00 93 1018.0
20260502121833 60 234 0.0 1.0 0.00 0.00 0.00 93 1017.9
20260502121330 60 243 0.0 1.0 0.00 0.00 0.00 93 1018.0
20260502120827 60 262 0.0 2.0 0.00 0.00 0.00 92 1018.0
20260502120323 60 345 0.0 2.0 0.00 0.00 0.00 92 1017.7
20260502115821 60 286 0.0 1.0 0.00 0.00 0.00 92 1017.7
20260502115318 60 353 0.0 3.0 0.00 0.00 0.00 92 1017.8
20260502114814 60 249 0.0 1.0 0.00 0.00 0.00 92 1017.7
20260502114311 60 270 0.0 0.0 0.00 0.00 0.00 92 1017.7
20260502113808 60 270 0.0 0.0 0.00 0.00 0.00 92 1017.7
20260502113306 60 246 0.0 0.0 0.00 0.00 0.00 92 1017.6
20260502112804 60 246 0.0 0.0 0.00 0.00 0.00 92 1017.6
20260502112301 60 246 0.0 0.0 0.00 0.00 0.00 92 1017.6
20260502111758 60 246 0.0 0.0 0.00 0.00 0.00 92 1017.6
20260502111255 60 246 0.0 0.0 0.00 0.00 0.00 92 1017.6
20260502110753 60 195 0.0 1.0 0.00 0.00 0.00 92 1017.6
20260502110250 59 249 0.0 1.0 0.00 0.00 0.00 92 1017.8
20260502105748 59 240 0.0 0.0 0.00 0.00 0.00 93 1017.8
20260502105244 59 240 0.0 2.0 0.00 0.00 0.00 93 1017.6
20260502104742 59 291 0.0 1.0 0.00 0.00 0.00 93 1017.5
20260502104240 59 278 0.0 0.0 0.00 0.00 0.00 93 1017.3
20260502103737 59 257 0.0 1.0 0.00 0.00 0.00 93 1017.4
20260502103234 59 0 0.0 0.0 0.00 0.00 0.00 94 1017.4
20260502102731 59 180 0.0 0.0 0.00 0.00 0.00 94 1017.4
20260502102227 59 180 0.0 2.0 0.00 0.00 0.00 94 1017.2
20260502101726 58 270 0.0 0.0 0.00 0.00 0.00 94 1017.2
20260502101224 58 270 0.0 0.0 0.00 0.00 0.00 94 1017.3
20260502100721 58 270 0.0 0.0 0.00 0.00 0.00 94 1017.3
20260502100220 58 270 0.0 0.0 0.00 0.00 0.00 94 1017.4
20260502091154 59 262 0.0 0.0 0.00 0.00 0.00 93 1017.4
20260502090651 58 262 0.0 0.0 0.00 0.00 0.00 93 1017.5
20260502090148 59 270 0.0 0.0 0.00 0.00 0.00 93 1017.5
20260502080110 59 286 0.0 0.0 0.00 0.00 0.00 92 1017.7
20260502071043 60 243 0.0 0.0 0.00 0.00 0.00 91 1018.1
20260502070541 60 243 0.0 0.0 0.00 0.00 0.00 91 1018.4
20260502070039 60 243 0.0 0.0 0.00 0.00 0.00 90 1018.2
20260502065538 60 243 0.0 0.0 0.00 0.00 0.00 90 1018.2
20260502065035 60 257 0.0 1.0 0.00 0.00 0.00 90 1018.1
20260502064533 60 246 0.0 1.0 0.00 0.00 0.00 90 1018.1
20260502064030 60 254 0.0 0.0 0.00 0.00 0.00 90 1018.3
20260502063527 60 229 0.0 0.0 0.00 0.00 0.00 90 1018.1
20260502063020 61 289 0.0 0.0 0.00 0.00 0.00 90 1018.2
20260502062516 60 352 0.0 0.0 0.00 0.00 0.00 89 1018.0
20260502062015 61 270 0.0 2.0 0.00 0.00 0.00 89 1018.0
20260502061512 61 270 0.0 2.0 0.00 0.00 0.00 89 1017.9
20260502061009 61 270 0.0 0.0 0.00 0.00 0.00 89 1018.0
20260502060503 61 334 0.0 2.0 0.00 0.00 0.00 89 1017.9
20260502060001 61 278 0.0 1.0 0.00 0.00 0.00 89 1017.9
20260502055458 61 286 0.0 1.0 0.00 0.00 0.00 89 1018.0
20260502054958 61 270 0.0 0.0 0.00 0.00 0.00 89 1018.2
20260502054455 61 229 0.0 0.0 0.00 0.00 0.00 89 1018.1
20260502053952 61 277 0.0 2.0 0.00 0.00 0.00 88 1018.0
20260502053449 61 279 0.0 1.0 0.00 0.00 0.00 88 1018.0
20260502052947 61 263 0.0 2.0 0.00 0.00 0.00 88 1018.0
20260502052445 61 270 0.0 2.0 0.00 0.00 0.00 88 1018.2
20260502051943 62 331 0.0 2.0 0.00 0.00 0.00 88 1018.2
20260502051441 61 279 0.0 2.0 0.00 0.00 0.00 88 1018.1
20260502050938 62 278 0.0 2.0 0.00 0.00 0.00 88 1018.0
20260502050434 62 275 2.0 2.0 0.00 0.00 0.00 88 1018.0
20260502045931 62 270 0.0 2.0 0.00 0.00 0.00 88 1018.2
20260502045428 62 286 1.0 3.0 0.00 0.00 0.00 88 1018.1
20260502044925 62 254 2.0 3.0 0.00 0.00 0.00 88 1018.0
20260502044421 62 332 3.0 3.0 0.00 0.00 0.00 88 1017.6
20260502043918 62 315 0.0 3.0 0.00 0.00 0.00 87 1017.9
20260502043416 62 262 1.0 3.0 0.00 0.00 0.00 87 1017.8
20260502042915 62 270 0.0 2.0 0.00 0.00 0.00 87 1017.8
20260502042413 62 287 0.0 3.0 0.00 0.00 0.00 87 1017.7
20260502041910 62 263 1.0 3.0 0.00 0.00 0.00 86 1017.7
20260502041408 63 285 0.0 2.0 0.00 0.00 0.00 86 1017.7
20260502040904 62 270 0.0 3.0 0.00 0.00 0.00 86 1017.3
20260502040401 62 339 2.0 2.0 0.00 0.00 0.00 86 1017.4
20260502035857 62 324 3.0 3.0 0.00 0.00 0.00 86 1017.5